Regional Weather Roundup
Issued by NWS Green Bay, WI

Home | Current Version | Previous Version | Graphics & Text | Print | Product List | Glossary Off
Versions: 1 2 3 4 5 6 7 8 9 10 11 12 13 14 15 16 17 18 19 20 21 22 23 24 25 26 27 28 29 30 31 32 33 34 35 36 37 38 39 40 41 42 43 44 45 46 47 48 49 50

000
ASUS43 KGRB 202159
RWRGRB

NORTH-CENTRAL AND NORTHEAST WISCONSIN REGIONAL WEATHER ROUNDUP
NATIONAL WEATHER SERVICE GREEN BAY WI
400 PM CST SAT DEC 20 2014

WIZ005-009-010>012-018-019-202300-
NORTH CENTRAL WISCONSIN

CITY           SKY/WX    TMP DP  RH WIND       PRES   REMARKS
IRONWOOD       CLOUDY    30  27  86 S6        30.11S
MANITOWISH WTR NOT AVBL
ARBOR VITAE    NOT AVBL
EAGLE RIVER    NOT AVBL
LAND O LAKES   NOT AVBL
RHINELANDER    CLOUDY    27  24  89 S7        30.15R FOG
PHILLIPS       CLOUDY    28  25  87 S7        30.13S
ANTIGO         NOT AVBL
TOMAHAWK       NOT AVBL
MERRILL        NOT AVBL
$$

WIZ013-073-202300-
NORTHEAST WISCONSIN

CITY           SKY/WX    TMP DP  RH WIND       PRES   REMARKS
IRON MOUNTAIN  CLOUDY    28  23  81 SE3       30.18S
MARINETTE      CLOUDY    28  23  80 E3        30.23S
$$

WIZ017-030-035>037-045-202300-
CENTRAL WISCONSIN

CITY           SKY/WX    TMP DP  RH WIND       PRES   REMARKS
MEDFORD        NOT AVBL
WAUSAU         CLOUDY    30  24  78 SE7       30.16S
MOSINEE        CLOUDY    28  27  93 S5        30.18S
MARSHFIELD     CLOUDY    30  25  81 SE7       30.16S HAZE
WISC RAPIDS    CLOUDY    31  24  75 SE6       30.20S
STEVENS POINT  NOT AVBL
WAUPACA        NOT AVBL
SHAWANO        NOT AVBL
CLINTONVILLE   CLOUDY    30  25  80 S3        30.22S
$$

WIZ038-039-048-051-202300-
FOX VALLEY

CITY           SKY/WX    TMP DP  RH WIND       PRES   REMARKS
NWS GREEN BAY  CLOUDY    30  24  78 SW3       30.23S
APPLETON       LGT SNOW  28  23  80 VRB5      30.22S
OSHKOSH        LGT SNOW  29  24  82 S3        30.22F
FOND DU LAC    LGT SNOW  30  24  78 S5        30.23R
$$

WIZ022-050-052-202300-
EAST CENTRAL WISCONSIN

CITY           SKY/WX    TMP DP  RH WIND       PRES   REMARKS
STURGEON BAY   CLOUDY    28  23  80 CALM      30.25S
MANITOWOC      NOT AVBL
SHEBOYGAN      CLOUDY    30  24  78 W3        30.23S HAZE
$$

LMZ563-521-522-541>543-202300-
LAKESHORE

STATION/POSITION TIME  TEMP    WIND        PRES    VSBY  WAVE
                       AIR SEA DIR/SP/G                  HT/PER
                 (UTC) (F)     (DEG/KT/KT) (MB)    (MI)  (FT/S)
SHEBOYGAN LKSHOR 2100   32 34  360/  4/  5 1024.7R
KEWAUNEE LKSHORE 2100   32      CALM  /  1 1023.0R
ALGOMA MARINA    2100             CALM       N/A
NORTHPORT PIER   2100   31      CALM  /  2 1023.7S
SISTER BAY LKSHO 2100             CALM       N/A
CHAMBERS ISLAND  2100   29      CALM  /  2 1023.7S
MENOMINEE LKSHOR 2100   29     140/  2/  3 1024.5R
$$


USA.gov is the U.S. government's official web portal to all federal, state and local government web resources and services.